Location: Burbank
(38.7788°N, 114.0429°W)
Time: 23:17:05
(UTC+00:00)

Transit 2A - Pass Details

Date: 17 May 2026
Orbit: 595 x 949 km, 66.7° (Epoch: 5 June)

Event Time Altitude Azimuth Distance (km) Brightness Sun altitude
Rises 06:08:25 0° 347° (NNW) 3,186 10.4 -28.6°
Reaches altitude 10° 06:12:42 10° 21° (NNE) 2,161 8.9 -28.9°
Maximum altitude 06:14:18 11° 40° (NE) 2,030 8.5 -29.0°
Enters shadow 06:15:50 10° 59° (ENE) 2,091 8.3 -29.2°
Drops below altitude 10° 06:15:51 10° 59° (ENE) 2,092 - -29.2°
Sets 06:19:46 0° 94° (E) 2,926 - -29.4°
